Simultaneous Nadir Overpasses (SNOs) Predictions

Prediction of SNOs between GOES-15 and METOP-A Satellite Orbit:

Table of predicted SNOs for the next 14.0 days since TLE Epoch: 9/26/2014
Index Date Time (GOES-15) GOES-15 Lat,Lon METOP-A Lat,Lon Distance(km) Time Diff (sec)
1 09/28/2014 18:32:15 -0.33,-135.31 -0.34,-135.18 15.05 80
2 10/01/2014 06:30:36 0.33,-135.31 0.45,-134.78 60.66 80
3 10/02/2014 18:46:47 -0.34,-135.35 0.59,-139.33 454.59 80
4 10/03/2014 18:28:48 -0.33,-135.36 -0.54,-134.34 115.72 80
5 10/05/2014 06:45:08 0.34,-135.34 -0.47,-138.93 409.91 80
6 10/06/2014 06:27:09 0.33,-135.34 0.65,-133.94 159.91 80
7 10/07/2014 18:43:20 -0.34,-135.37 0.37,-138.50 356.23 80
8 10/08/2014 18:25:20 -0.33,-135.37 -0.76,-133.50 213.52 80
9 10/10/2014 06:44:20 0.34,-135.35 -0.30,-138.09 312.66 80




NCC Satellite Simultaneous Nadir Overpasses (SNOs) Prediction Service
